This demonstration page uses our WeatherBlox Daily Observations layout. Learn more.

40.92945, -100.16068

Hourly Observations for May 18, 2018

Temp ( °F °C ) Dew Point ( °F °C ) Humidity (%) Winds ( mph kmh ) Pressure ( in mb ) Visibility ( mi km ) Precip ( " mm )
12:15 am 00:15 Clear 71 21.5 52 11.1 52 52 SE 13 20 29.71 1006 10 16.0934 0 0
12:35 am 00:35 Clear 70 21.2 52 11.3 53 53 SE 15 24 29.74 1007 10 16.0934 0 0
12:55 am 00:55 Clear 70 21 54 12 57 57 SE 14 22 29.74 1007 10 16.0934 0 0
1:15 am 01:15 Partly Cloudy 69 20.7 54 12.2 58 58 SE 13 20 29.74 1007 10 16.0934 0 0
1:35 am 01:35 Cloudy 69 20.7 55 12.5 60 60 SE 8 13 29.77 1008 10 16.0934 0 0
1:55 am 01:55 Cloudy 69 20.6 55 12.7 61 61 SE 6 9 29.8 1009 10 16.0934 0 0
2:15 am 02:15 Cloudy 69 20.5 55 12.8 61 61 SE 12 19 29.77 1008 10 16.0934 0 0
2:35 am 02:35 Mostly Cloudy 69 20.3 55 13 63 63 ESE 7 11 29.77 1008 10 16.0934 0 0
2:55 am 02:55 Cloudy 67 19.2 56 13.4 69 69 NE 6 9 29.8 1009 10 16.0934 0 0
3:15 am 03:15 Cloudy 66 18.8 56 13.5 71 71 E 8 13 29.77 1008 10 16.0934 0 0
3:35 am 03:35 Cloudy 64 17.9 56 13.1 74 74 NNW 39 63 29.85 1011 10 16.0934 0 0
3:55 am 03:55 Cloudy with Thunderstorms 60 15.7 55 13 84 84 NNW 28 44 29.91 1013 7 11.26538 0.02 0.508
4:15 am 04:15 Cloudy 59 14.9 56 13.5 91 91 N 24 39 29.88 1012 4 6.43736 0.15 3.81
4:35 am 04:35 Cloudy 59 15 57 13.7 92 92 NNE 15 24 29.88 1012 10 16.0934 0.17 4.318
4:55 am 04:55 Cloudy 60 15.3 58 14.2 93 93 NNE 15 24 29.88 1012 7 11.26538 0.19 4.826
5:15 am 05:15 Cloudy with Light Thunderstorms 59 15 57 14 94 94 NNE 16 26 29.88 1012 10 16.0934 0.01 0.254
5:35 am 05:35 Cloudy with Light Thunderstorms 59 14.8 57 13.8 94 94 N 15 24 29.88 1012 10 16.0934 0.01 0.254
5:55 am 05:55 Cloudy 58 14.5 56 13.5 94 94 NNE 21 33 29.88 1012 5 8.0467 0.08 2.032
6:15 am 06:15 Cloudy with Heavy Thunderstorms 58 14.2 55 12.9 92 92 NW 18 30 29.97 1015 2 3.21868 0.27 6.858
6:35 am 06:35 Cloudy with Heavy Thunderstorms 57 13.8 55 13 95 95 N 17 28 29.94 1014 4 6.43736 0.6 15.24
6:55 am 06:55 Cloudy with Nearby Thunderstorms 58 14.2 55 12.9 92 92 N 16 26 29.91 1013 7 11.26538 0.65 16.51
7:15 am 07:15 Cloudy 58 14.2 55 13 93 93 NNE 16 26 29.91 1013 10 16.0934 0.03 0.762
7:35 am 07:35 Cloudy with Rain 58 14.5 56 13.1 91 91 NNE 16 26 29.94 1014 7 11.26538 0.05 1.27
7:55 am 07:55 Cloudy 58 14.2 55 13 93 93 NE 30 48 29.85 1011 10 16.0934 0.08 2.032
8:15 am 08:15 Windy with Storms Likely 59 14.8 55 12.6 87 87 ENE 26 43 29.77 1008 7 11.26538 0.04 1.016
8:35 am 08:35 Windy with Storms Likely 59 15.1 55 12.5 85 85 E 31 50 29.71 1006 10 16.0934 0.04 1.016
8:55 am 08:55 Partly Cloudy 60 15.6 54 12.3 81 81 NE 16 26 29.74 1007 10 16.0934 0.04 1.016
9:15 am 09:15 Partly Cloudy 60 15.5 55 12.5 82 82 E 6 9 29.77 1008 10 16.0934 0 0
9:35 am 09:35 Partly Cloudy 61 16 55 12.6 80 80 ESE 6 9 29.77 1008 10 16.0934 0 0
9:55 am 09:55 Cloudy 61 16 55 12.9 82 82 S 9 15 29.8 1009 10 16.0934 0 0
10:15 am 10:15 Cloudy 60 15.5 56 13.2 86 86 SE 16 26 29.77 1008 10 16.0934 0 0
10:35 am 10:35 Mostly Cloudy 61 16.2 56 13.5 84 84 E 7 11 29.8 1009 10 16.0934 0 0
10:55 am 10:55 Partly Cloudy 62 16.7 57 13.7 83 83 ESE 5 7 29.8 1009 10 16.0934 0 0
11:15 am 11:15 Sunny with Nearby Thunderstorms 62 16.8 56 13.6 82 82 ESE 7 11 29.8 1009 10 16.0934 0 0
11:35 am 11:35 Sunny 62 16.8 57 14 84 84 Calm 29.8 1009 10 16.0934 0 0
11:55 am 11:55 Sunny 63 17 57 14.1 83 83 NE 3 6 29.83 1010 10 16.0934 0 0
12:15 pm 12:15 Partly Cloudy 63 17.2 58 14.4 84 84 Calm 29.83 1010 10 16.0934 0 0
12:35 pm 12:35 Mostly Cloudy with Nearby Thunderstorms 64 17.5 58 14.6 83 83 Calm 29.85 1011 10 16.0934 0 0
12:55 pm 12:55 Partly Cloudy with Nearby Thunderstorms 65 18.1 59 14.9 82 82 Calm 29.85 1011 10 16.0934 0 0
1:15 pm 13:15 Mostly Cloudy 65 18.6 60 15.6 83 83 NNW 5 7 29.85 1011 10 16.0934 0 0
1:35 pm 13:35 Cloudy 66 19 59 15.2 79 79 N 5 7 29.83 1010 10 16.0934 0 0
1:55 pm 13:55 Cloudy 66 19 59 15.1 78 78 Calm 29.83 1010 10 16.0934 0 0
2:15 pm 14:15 Cloudy 66 19 60 15.5 80 80 ENE 6 9 29.83 1010 10 16.0934 0 0
2:35 pm 14:35 Cloudy 66 19 60 15.4 80 80 ENE 7 11 29.83 1010 10 16.0934 0 0
2:55 pm 14:55 Cloudy 66 19 60 15.5 80 80 E 7 11 29.83 1010 10 16.0934 0 0
3:15 pm 15:15 Cloudy 66 18.8 60 15.6 82 82 ENE 8 13 29.85 1011 10 16.0934 0 0
3:35 pm 15:35 Cloudy 66 19 60 15.6 81 81 E 6 9 29.83 1010 10 16.0934 0 0
3:55 pm 15:55 Cloudy 66 19.1 61 15.9 82 82 ENE 7 11 29.83 1010 10 16.0934 0 0
4:15 pm 16:15 Cloudy 66 19 60 15.8 82 82 ENE 8 13 29.83 1010 10 16.0934 0 0
4:35 pm 16:35 Cloudy 66 18.7 61 15.9 84 84 ENE 7 11 29.85 1011 10 16.0934 0 0
4:55 pm 16:55 Cloudy 66 18.9 61 16.2 84 84 ENE 7 11 29.85 1011 10 16.0934 0 0
5:15 pm 17:15 Cloudy with Light Rain 66 19 61 16.3 84 84 NE 7 11 29.83 1010 10 16.0934 0 0
5:35 pm 17:35 Cloudy 66 19 61 16.1 83 83 NE 10 17 29.83 1010 10 16.0934 0 0
5:55 pm 17:55 Cloudy 66 18.9 61 16.2 84 84 ENE 8 13 29.85 1011 10 16.0934 0 0
6:15 pm 18:15 Cloudy 66 19 61 16 83 83 NE 12 19 29.83 1010 10 16.0934 0 0
6:35 pm 18:35 Cloudy 66 18.7 61 16 84 84 NE 8 13 29.8 1009 10 16.0934 0 0
6:55 pm 18:55 Cloudy 66 18.9 61 16 83 83 ENE 10 17 29.8 1009 10 16.0934 0 0
7:15 pm 19:15 Mostly Cloudy 65 18.6 60 15.7 83 83 ENE 12 19 29.83 1010 10 16.0934 0 0
7:35 pm 19:35 Mostly Cloudy 65 18.4 60 15.5 83 83 NE 10 17 29.83 1010 10 16.0934 0 0
7:55 pm 19:55 Cloudy 65 18.2 60 15.5 84 84 ENE 8 13 29.83 1010 10 16.0934 0 0
8:15 pm 20:15 Cloudy 64 17.9 59 15.1 84 84 NE 9 15 29.83 1010 10 16.0934 0 0
8:35 pm 20:35 Cloudy 64 17.7 59 14.8 83 83 NE 9 15 29.8 1009 10 16.0934 0 0
8:55 pm 20:55 Cloudy 64 17.6 58 14.7 83 83 NE 9 15 29.83 1010 10 16.0934 0 0
9:15 pm 21:15 Cloudy 64 17.5 58 14.6 83 83 NNE 9 15 29.8 1009 10 16.0934 0 0
9:35 pm 21:35 Cloudy 62 16.8 59 15 89 89 ENE 14 22 29.8 1009 10 16.0934 0 0
9:55 pm 21:55 Mostly Cloudy 62 16.7 58 14.7 88 88 NE 12 19 29.83 1010 10 16.0934 0 0
10:15 pm 22:15 Cloudy 62 16.7 59 15 90 90 ENE 13 20 29.83 1010 10 16.0934 0 0
10:35 pm 22:35 Mostly Cloudy 62 16.7 58 14.7 88 88 NE 14 22 29.83 1010 10 16.0934 0 0
10:55 pm 22:55 Mostly Cloudy 62 16.7 58 14.6 88 88 NE 16 26 29.83 1010 10 16.0934 0 0
11:15 pm 23:15 Partly Cloudy with Nearby Thunderstorms 62 16.7 58 14.7 88 88 NE 9 15 29.85 1011 10 16.0934 0 0
11:35 pm 23:35 Partly Cloudy 62 16.6 58 14.7 89 89 E 8 13 29.85 1011 10 16.0934 0 0
11:55 pm 23:55 Mostly Cloudy 62 16.6 59 15 90 90 NE 12 19 29.85 1011 10 16.0934 0 0

Powered by AerisWeather